Ocala, FL

3:01 PM EDT on March 27, 2017 (GMT -0400)
Ocala Regional-Taylor

Weather History for KOCF - June, 2014

Change the Weather History Date:

Saturday, June 7, 2014

  Actual Average Record
Temperature  
Mean Temperature 79 °F -  
Max Temperature 89 °F 87 °F 96 °F (2008)
Min Temperature 69 °F 67 °F 57 °F (1997)
Cooling Degree Days 14    
Growing Degree Days 29 (Base 50)    
Moisture  
Dew Point 65 °F    
Average Humidity 71    
Maximum Humidity 83    
Minimum Humidity 49    
Precipitation  
Precipitation 0.86 in - - ()
Sea Level Pressure  
Sea Level Pressure 29.97 in    
Wind  
Wind Speed 5 mph (NW)    
Max Wind Speed 23 mph    
Max Gust Speed 31 mph    
Visibility 9 miles    
Events Rain , Thunderstorm    
Averages and records for this station are not official NWS values.
T = Trace of Precipitation, MM = Missing Value Source: NWS Daily Summary

Daily Weather History Graph

Daily Weather History Graph

Search for Another Location

Airport or City:

Trip Planner

Search our weather history database for the weather conditions in past years. The results will help you decide how hot, cold, wet, or windy it might be!

Date:

Astronomy

Jun. 07, 2014 Rise Set
Actual Time 6:29 AM EDT 8:26 PM EDT
Civil Twilight 6:02 AM EDT 8:53 PM EDT
Nautical Twilight 5:29 AM EDT 9:26 PM EDT
Astronomical Twilight 4:55 AM EDT 10:00 PM EDT
Moon 3:06 PM EDT (6/7) 2:24 AM EDT (6/7)
Length of Visible Light 14h 51m
Length of Day
13h 57m
Waxing Gibbous, 67% of the Moon is Illuminated
Jun 7
Waxing Gibbous
Jun 13
Full
Jun 19
Last Quarter
Jun 27
New
Jul 5
First Quarter

Hourly Weather History & Observations

Time (EDT) Temp. Heat Index Dew Point Humidity Pressure Visibility Wind Dir Wind Speed Gust Speed Precip Events Conditions
12:15 AM 75.2 °F - 64.4 °F 69% 30.02 in 10.0 mi WNW 3.5 mph - N/A   Clear
12:35 AM 75.2 °F - 64.4 °F 69% 30.02 in 10.0 mi Calm Calm - N/A   Partly Cloudy
12:55 AM 75.2 °F - 64.4 °F 69% 30.01 in 10.0 mi Calm Calm - N/A   Partly Cloudy
1:15 AM 73.4 °F - 66.2 °F 78% 30.01 in 10.0 mi Calm Calm - N/A   Clear
1:35 AM 73.4 °F - 66.2 °F 78% 30.02 in 10.0 mi WNW 3.5 mph - N/A   Clear
1:55 AM 73.4 °F - 64.4 °F 73% 30.03 in 10.0 mi NW 3.5 mph - N/A   Scattered Clouds
2:15 AM 75.2 °F - 66.2 °F 73% 30.03 in 10.0 mi NW 6.9 mph - N/A   Mostly Cloudy
2:35 AM 75.2 °F - 66.2 °F 73% 30.03 in 10.0 mi NNW 8.1 mph - N/A   Mostly Cloudy
2:55 AM 75.2 °F - 66.2 °F 73% 30.03 in 10.0 mi North 21.9 mph 27.6 mph N/A   Overcast
3:15 AM 75.2 °F - 64.4 °F 69% 30.01 in 10.0 mi NNE 16.1 mph 24.2 mph N/A   Scattered Clouds
3:35 AM 73.4 °F - 62.6 °F 69% 29.95 in 10.0 mi ENE 10.4 mph 17.3 mph N/A   Clear
3:55 AM 73.4 °F - 62.6 °F 69% 29.91 in 10.0 mi ESE 3.5 mph - N/A   Clear
4:15 AM 73.4 °F - 62.6 °F 69% 29.90 in 10.0 mi SE 4.6 mph - N/A   Clear
4:35 AM 73.4 °F - 62.6 °F 69% 29.85 in 10.0 mi SSE 6.9 mph - N/A   Clear
4:55 AM 73.4 °F - 62.6 °F 69% 29.86 in 10.0 mi South 4.6 mph - N/A   Clear
5:15 AM 73.4 °F - 62.6 °F 69% 29.87 in 10.0 mi SSW 8.1 mph - N/A   Clear
5:35 AM 73.4 °F - 62.6 °F 69% 29.89 in 10.0 mi South 4.6 mph - N/A   Clear
5:55 AM 71.6 °F - 62.6 °F 73% 29.92 in 10.0 mi North 4.6 mph - N/A   Clear
6:15 AM 71.6 °F - 62.6 °F 73% 29.95 in 10.0 mi NNW 6.9 mph - N/A   Clear
6:35 AM 71.6 °F - 60.8 °F 69% 29.96 in 10.0 mi NNW 4.6 mph - N/A   Clear
6:50 AM 71.6 °F - 62.6 °F 73% 29.98 in 10.0 mi NNW 6.9 mph - N/A   Partly Cloudy
9:50 AM 78.8 °F - 64.4 °F 61% 30.04 in 10.0 mi WSW 5.8 mph - N/A   Clear
11:50 AM 84.2 °F 87.3 °F 68.0 °F 58% 30.03 in 10.0 mi West 6.9 mph - N/A   Scattered Clouds
12:50 PM 86.0 °F 90.4 °F 69.8 °F 58% 30.02 in 10.0 mi NW 6.9 mph - N/A   Mostly Cloudy
1:50 PM 87.8 °F 92.6 °F 69.8 °F 55% 30.00 in 10.0 mi West 6.9 mph - N/A   Mostly Cloudy
2:50 PM 87.8 °F 91.4 °F 68.0 °F 52% 29.97 in 10.0 mi West 6.9 mph - N/A   Scattered Clouds
3:50 PM 89.6 °F 93.4 °F 68.0 °F 49% 29.96 in 10.0 mi West 8.1 mph - N/A   Scattered Clouds
4:50 PM 87.8 °F 91.4 °F 68.0 °F 52% 29.94 in 10.0 mi West 9.2 mph - N/A   Scattered Clouds
5:30 PM 82.4 °F 86.3 °F 69.8 °F 66% 29.95 in 1.5 mi North 23.0 mph 31.1 mph N/A Rain , Thunderstorm Heavy Thunderstorms and Rain
5:50 PM 73.4 °F - 62.6 °F 69% 29.98 in 2.0 mi NE 15.0 mph 28.8 mph N/A Rain , Thunderstorm Thunderstorms and Rain
6:00 PM 73.4 °F - 62.6 °F 69% 29.95 in 7.0 mi SSE 6.9 mph - N/A   Mostly Cloudy
6:50 PM 73.4 °F - 64.4 °F 73% 29.98 in 1.5 mi NNE 12.7 mph - N/A Rain , Thunderstorm Thunderstorms and Rain
7:36 PM 71.6 °F - 62.6 °F 73% 29.97 in 5.0 mi SSE 8.1 mph - N/A Rain , Thunderstorm Light Thunderstorms and Rain
7:55 PM 71.6 °F - 62.6 °F 73% 29.98 in 9.0 mi ENE 6.9 mph - 0.85 in Thunderstorm Thunderstorm
8:15 PM 71.6 °F - 64.4 °F 78% 29.97 in 10.0 mi East 3.5 mph - N/A Thunderstorm Mostly Cloudy
8:35 PM 69.8 °F - 64.4 °F 83% 29.97 in 10.0 mi Calm Calm - N/A   Partly Cloudy
8:55 PM 71.6 °F - 64.4 °F 78% 29.97 in 10.0 mi Calm Calm - 0.01 in   Clear
9:15 PM 71.6 °F - 64.4 °F 78% 29.98 in 10.0 mi West 3.5 mph - N/A   Clear
9:35 PM 71.6 °F - 64.4 °F 78% 29.98 in 10.0 mi Calm Calm - N/A   Scattered Clouds
9:55 PM 71.6 °F - 64.4 °F 78% 29.98 in 10.0 mi West 3.5 mph - N/A   Mostly Cloudy
10:15 PM 71.6 °F - 64.4 °F 78% 29.99 in 10.0 mi Calm Calm - N/A   Scattered Clouds
10:35 PM 71.6 °F - 64.4 °F 78% 29.99 in 10.0 mi Calm Calm - N/A   Partly Cloudy
10:55 PM 69.8 °F - 64.4 °F 83% 29.99 in 10.0 mi Calm Calm - N/A   Clear
11:15 PM 69.8 °F - 64.4 °F 83% 29.99 in 10.0 mi Calm Calm - N/A   Clear
11:35 PM 69.8 °F - 64.4 °F 83% 30.00 in 9.0 mi Calm Calm - N/A   Clear
11:55 PM 69.8 °F - 62.6 °F 78% 30.00 in 10.0 mi Calm Calm - N/A   Scattered Clouds